This is the latest recevied weather packets stored in our database for station/object WD9EKA. If no packets are shown the sender has not sent any weather packets the latest 1 day(s).
| Time | Temp. | Humidity | Pressure | Rain* | Wind** | Luminosity | Snow |
|---|---|---|---|---|---|---|---|
| 1778016533 | 9.44° C | 99% | 1004 hPa | 1.78 mm | - | - | - |
| 1778016214 | 9.44° C | 99% | 1004 hPa | 1.52 mm | - | - | - |
| 1778015573 | 9.44° C | 99% | 1004.1 hPa | 1.52 mm | - | - | - |
| 1778015254 | 10° C | 99% | 1004.4 hPa | 1.27 mm | - | - | - |
| 1778014534 | 9.44° C | 99% | 1004.3 hPa | 1.02 mm | - | - | - |
| 1778014229 | 9.44° C | 99% | 1004.4 hPa | 0.76 mm | - | - | - |
| 1778013589 | 9.44° C | 99% | 1004.7 hPa | 0.51 mm | - | - | - |
| 1778012314 | 9.44° C | 99% | 1004.6 hPa | 0.25 mm | - | - | - |
| 1778011954 | 9.44° C | 99% | 1004.7 hPa | 0.25 mm | - | - | - |
| 1778009194 | 10° C | 99% | 1004.3 hPa | 0 mm | - | - | - |
| 1778007253 | 10° C | 99% | 1004.6 hPa | 0 mm | - | - | - |
| 1778006254 | 10° C | 99% | 1004.3 hPa | 0 mm | - | - | - |
| 1778005301 | 10° C | 99% | 1004.3 hPa | 0 mm | - | - | - |
| 1778004994 | 10° C | 99% | 1004.2 hPa | 0 mm | - | - | - |
| 1778004274 | 9.44° C | 99% | 1004.2 hPa | 0 mm | - | - | - |
| 1778003194 | 9.44° C | 99% | 1004.4 hPa | 0 mm | - | - | - |
| 1778001557 | 10° C | 99% | 1004.3 hPa | 0.25 mm | - | - | - |
| 1778001237 | 10° C | 99% | 1004.2 hPa | 0.51 mm | - | - | - |
| 1778000914 | 10° C | 99% | 1004.1 hPa | 0.51 mm | - | - | - |
| 1777998034 | 8.89° C | 99% | 1004.3 hPa | 3.05 mm | - | - | - |
| 1777997074 | 8.89° C | 99% | 1004.4 hPa | 3.05 mm | - | - | - |
| 1777995798 | 9.44° C | 99% | 1005 hPa | 2.29 mm | - | - | - |
* Rain latest hour (hover to see other rain measurements)
** Current wind speed in m/s (hover to see current wind gust speed)